SUR4400 SAZR-SABE

Flight info

Callsign SUR4400
Flight time 0h 54m
Altitude 31000
Route TIMKU2C TIMKU W73 IRASU W68 ASADA ASADA9R
Aircraft A319/M-SDE3FGHIRWY/LB1

Departure

Time 2026-05-03 20:42
Airport Santa Rosa Airport (SAZR)

Arrival

Time 2026-05-03 21:36
Airport Aeroparque Jorge Newbery (SABE)
Time Latitude Longitude Altitude Speed Heading
2026-05-03 20:40 -36.59800 -64.27801 622 ft 0 kts 13°
2026-05-03 20:40 -36.59799 -64.27801 622 ft 0 kts 13°
2026-05-03 20:40 -36.59798 -64.27801 622 ft 0 kts 13°
2026-05-03 20:41 -36.59798 -64.27800 622 ft 0 kts 13°
2026-05-03 20:41 -36.59797 -64.27800 622 ft 0 kts 13°
2026-05-03 20:42 -36.59723 -64.27783 624 ft 39 kts
2026-05-03 20:42 -36.59186 -64.27648 625 ft 114 kts
2026-05-03 20:42 -36.58210 -64.27403 689 ft 165 kts 11°
2026-05-03 20:42 -36.57092 -64.27091 1347 ft 170 kts 10°
2026-05-03 20:43 -36.55929 -64.26765 2187 ft 172 kts
2026-05-03 20:43 -36.54752 -64.26485 2920 ft 181 kts
2026-05-03 20:43 -36.53452 -64.26199 3460 ft 202 kts
2026-05-03 20:43 -36.52011 -64.25874 4038 ft 222 kts
2026-05-03 20:44 -36.50447 -64.25502 4664 ft 241 kts
2026-05-03 20:44 -36.48738 -64.25053 5298 ft 261 kts 13°
2026-05-03 20:44 -36.47110 -64.23898 5979 ft 284 kts 41°
2026-05-03 20:44 -36.46007 -64.21850 6809 ft 295 kts 67°
2026-05-03 20:45 -36.45395 -64.19419 7736 ft 300 kts 73°
2026-05-03 20:45 -36.44867 -64.16882 8655 ft 305 kts 73°
2026-05-03 20:45 -36.44315 -64.14373 9526 ft 310 kts 72°
2026-05-03 20:45 -36.43693 -64.11774 10389 ft 315 kts 70°
2026-05-03 20:46 -36.43026 -64.09141 10932 ft 331 kts 69°
2026-05-03 20:46 -36.42292 -64.06349 11393 ft 350 kts 69°
2026-05-03 20:46 -36.41516 -64.03445 11812 ft 368 kts 68°
2026-05-03 20:46 -36.40687 -64.00364 12227 ft 385 kts 68°
2026-05-03 20:47 -36.39833 -63.97190 12895 ft 392 kts 68°
2026-05-03 20:47 -36.38969 -63.93979 13844 ft 391 kts 68°
2026-05-03 20:47 -36.38108 -63.90793 14646 ft 394 kts 68°
2026-05-03 20:47 -36.37230 -63.87562 15322 ft 400 kts 68°
2026-05-03 20:48 -36.36338 -63.84289 16012 ft 405 kts 68°
2026-05-03 20:48 -36.35440 -63.80982 16675 ft 410 kts 68°
2026-05-03 20:48 -36.34515 -63.77622 17294 ft 416 kts 66°
2026-05-03 20:48 -36.33427 -63.74328 17933 ft 418 kts 62°
2026-05-03 20:49 -36.32114 -63.71095 18530 ft 421 kts 57°
2026-05-03 20:49 -36.30675 -63.67947 19102 ft 425 kts 56°
2026-05-03 20:49 -36.29184 -63.64754 19654 ft 430 kts 56°
2026-05-03 20:49 -36.27674 -63.61527 20195 ft 434 kts 56°
2026-05-03 20:50 -36.26166 -63.58298 20740 ft 439 kts 56°
2026-05-03 20:50 -36.24630 -63.54998 21254 ft 443 kts 57°
2026-05-03 20:50 -36.23101 -63.51705 21757 ft 448 kts 57°
2026-05-03 20:50 -36.21550 -63.48363 22242 ft 452 kts 57°
2026-05-03 20:51 -36.19966 -63.44949 22697 ft 458 kts 57°
2026-05-03 20:51 -36.18389 -63.41557 23156 ft 462 kts 57°
2026-05-03 20:51 -36.16770 -63.38080 23645 ft 467 kts 57°
2026-05-03 20:51 -36.15149 -63.34596 24144 ft 470 kts 56°
2026-05-03 20:52 -36.13525 -63.31111 24624 ft 474 kts 57°
2026-05-03 20:52 -36.11869 -63.27563 25105 ft 477 kts 57°
2026-05-03 20:52 -36.10223 -63.24037 25580 ft 481 kts 57°
2026-05-03 20:52 -36.08528 -63.20416 26046 ft 484 kts 57°
2026-05-03 20:53 -36.06848 -63.16823 26534 ft 487 kts 57°
2026-05-03 20:53 -36.05152 -63.13205 27002 ft 490 kts 57°
2026-05-03 20:53 -36.03438 -63.09549 27445 ft 494 kts 57°
2026-05-03 20:53 -36.01715 -63.05880 28013 ft 494 kts 57°
2026-05-03 20:54 -36.00019 -63.02273 28678 ft 492 kts 57°
2026-05-03 20:54 -35.96590 -62.94987 29942 ft 490 kts 57°
2026-05-03 20:54 -35.94889 -62.91376 30432 ft 493 kts 57°
2026-05-03 20:55 -35.93145 -62.87687 30845 ft 496 kts 57°
2026-05-03 20:55 -35.91417 -62.84038 30933 ft 499 kts 57°
2026-05-03 20:55 -35.87928 -62.76662 30943 ft 499 kts 57°
2026-05-03 20:56 -35.84426 -62.69284 30944 ft 500 kts 57°
2026-05-03 20:56 -35.80933 -62.61936 30944 ft 500 kts 57°
2026-05-03 20:57 -35.77421 -62.54562 30944 ft 500 kts 57°
2026-05-03 20:57 -35.73902 -62.47193 30947 ft 501 kts 57°
2026-05-03 20:58 -35.70383 -62.39840 30948 ft 500 kts 57°
2026-05-03 20:58 -35.66859 -62.32493 30947 ft 501 kts 56°
2026-05-03 20:59 -35.63310 -62.25105 30954 ft 500 kts 57°
2026-05-03 20:59 -35.59773 -62.17763 30959 ft 500 kts 57°
2026-05-03 21:00 -35.56831 -62.11675 30959 ft 502 kts 57°
2026-05-03 21:00 -35.52698 -62.03123 30962 ft 501 kts 57°
2026-05-03 21:01 -35.49137 -61.95775 30959 ft 500 kts 57°
2026-05-03 21:01 -35.45583 -61.88462 30966 ft 500 kts 57°
2026-05-03 21:02 -35.42052 -61.81177 30967 ft 500 kts 59°
2026-05-03 21:02 -35.39085 -61.73474 30974 ft 502 kts 69°
2026-05-03 21:03 -35.37146 -61.65268 30985 ft 503 kts 79°
2026-05-03 21:03 -35.35813 -61.56880 30986 ft 502 kts 81°
2026-05-03 21:04 -35.34506 -61.48550 30989 ft 502 kts 80°
2026-05-03 21:04 -35.33152 -61.40184 30988 ft 501 kts 80°
2026-05-03 21:05 -35.31777 -61.31829 30984 ft 501 kts 80°
2026-05-03 21:05 -35.30405 -61.23519 30985 ft 500 kts 79°
2026-05-03 21:06 -35.29020 -61.15181 30990 ft 501 kts 79°
2026-05-03 21:06 -35.27638 -61.06903 30986 ft 500 kts 80°
2026-05-03 21:07 -35.26249 -60.98601 30991 ft 499 kts 79°
2026-05-03 21:07 -35.24850 -60.90284 30988 ft 499 kts 80°
2026-05-03 21:08 -35.23454 -60.82026 30991 ft 499 kts 79°
2026-05-03 21:08 -35.22042 -60.73715 30995 ft 499 kts 80°
2026-05-03 21:09 -35.20631 -60.65443 31002 ft 499 kts 79°
2026-05-03 21:09 -35.19217 -60.57193 31002 ft 498 kts 79°
2026-05-03 21:10 -35.17797 -60.48929 31005 ft 499 kts 80°
2026-05-03 21:10 -35.16376 -60.40695 31004 ft 498 kts 79°
2026-05-03 21:11 -35.14944 -60.32449 31001 ft 498 kts 79°
2026-05-03 21:11 -35.14217 -60.28265 30762 ft 497 kts 79°
2026-05-03 21:11 -35.13504 -60.24172 30476 ft 494 kts 79°
2026-05-03 21:12 -35.12790 -60.20078 30031 ft 491 kts 79°
2026-05-03 21:12 -35.12084 -60.16032 29475 ft 487 kts 78°
2026-05-03 21:12 -35.11381 -60.12026 28838 ft 486 kts 78°
2026-05-03 21:12 -35.10676 -60.08014 28151 ft 485 kts 78°
2026-05-03 21:13 -35.09965 -60.03982 27432 ft 485 kts 78°
2026-05-03 21:13 -35.09259 -59.99985 26770 ft 483 kts 78°
2026-05-03 21:13 -35.08554 -59.96004 26289 ft 476 kts 78°
2026-05-03 21:13 -35.07869 -59.92130 25806 ft 471 kts 78°
2026-05-03 21:14 -35.07182 -59.88260 25307 ft 466 kts 78°
2026-05-03 21:14 -35.06497 -59.84405 24809 ft 461 kts 78°
2026-05-03 21:14 -35.05826 -59.80643 24330 ft 456 kts 77°
2026-05-03 21:14 -35.05150 -59.76859 23842 ft 452 kts 77°
2026-05-03 21:15 -35.04487 -59.73160 23367 ft 449 kts 77°
2026-05-03 21:15 -35.03818 -59.69436 22888 ft 445 kts 77°
2026-05-03 21:15 -35.03135 -59.65800 22400 ft 442 kts 74°
2026-05-03 21:15 -35.02127 -59.62322 22076 ft 435 kts 65°
2026-05-03 21:16 -35.00725 -59.59084 22030 ft 428 kts 56°
2026-05-03 21:16 -34.99100 -59.56056 22031 ft 432 kts 53°
2026-05-03 21:16 -34.97394 -59.53012 21813 ft 441 kts 53°
2026-05-03 21:16 -34.95650 -59.49905 21699 ft 441 kts 53°
2026-05-03 21:17 -34.93940 -59.46838 21700 ft 441 kts 54°
2026-05-03 21:17 -34.92802 -59.44791 21700 ft 441 kts 54°
2026-05-03 21:17 -34.90506 -59.40638 21672 ft 439 kts 54°
2026-05-03 21:17 -34.88817 -59.37578 21318 ft 434 kts 54°
2026-05-03 21:18 -34.87148 -59.34555 20734 ft 432 kts 54°
2026-05-03 21:18 -34.85492 -59.31554 20187 ft 430 kts 54°
2026-05-03 21:18 -34.83837 -59.28559 19918 ft 419 kts 54°
2026-05-03 21:18 -34.82230 -59.25650 19719 ft 407 kts 54°
2026-05-03 21:19 -34.80688 -59.22861 19529 ft 396 kts 53°
2026-05-03 21:19 -34.79180 -59.20140 19311 ft 386 kts 54°
2026-05-03 21:19 -34.77680 -59.17438 18859 ft 385 kts 54°
2026-05-03 21:19 -34.76176 -59.14732 18383 ft 384 kts 54°
2026-05-03 21:20 -34.74699 -59.12074 17963 ft 381 kts 54°
2026-05-03 21:20 -34.73216 -59.09406 17496 ft 377 kts 54°
2026-05-03 21:20 -34.71755 -59.06781 16969 ft 375 kts 54°
2026-05-03 21:20 -34.70301 -59.04175 16424 ft 372 kts 54°
2026-05-03 21:21 -34.68859 -59.01589 15855 ft 369 kts 54°
2026-05-03 21:21 -34.67433 -58.99029 15304 ft 366 kts 54°
2026-05-03 21:21 -34.66013 -58.96486 14813 ft 362 kts 54°
2026-05-03 21:21 -34.64613 -58.93978 14364 ft 357 kts 55°
2026-05-03 21:22 -34.63249 -58.91532 14069 ft 348 kts 55°
2026-05-03 21:22 -34.61898 -58.89114 13708 ft 341 kts 55°
2026-05-03 21:22 -34.60592 -58.86778 13519 ft 332 kts 55°
2026-05-03 21:22 -34.59311 -58.84491 13190 ft 323 kts 54°
2026-05-03 21:23 -34.58052 -58.82238 12607 ft 321 kts 54°
2026-05-03 21:23 -34.56897 -58.79946 12004 ft 318 kts 67°
2026-05-03 21:23 -34.56569 -58.77351 11383 ft 315 kts 98°
2026-05-03 21:23 -34.57144 -58.74828 10800 ft 309 kts 112°
2026-05-03 21:24 -34.57932 -58.72433 10122 ft 309 kts 113°
2026-05-03 21:24 -34.58718 -58.70027 9390 ft 310 kts 111°
2026-05-03 21:24 -34.59455 -58.67588 8756 ft 307 kts 109°
2026-05-03 21:24 -34.60151 -58.65159 8151 ft 303 kts 108°
2026-05-03 21:25 -34.60819 -58.62752 7549 ft 299 kts 108°
2026-05-03 21:25 -34.61472 -58.60372 6944 ft 295 kts 107°
2026-05-03 21:25 -34.62097 -58.58034 6743 ft 293 kts 107°
2026-05-03 21:25 -34.62723 -58.55677 6425 ft 292 kts 106°
2026-05-03 21:26 -34.63342 -58.53344 6282 ft 292 kts 106°
2026-05-03 21:26 -34.63962 -58.51009 6118 ft 288 kts 106°
2026-05-03 21:26 -34.64558 -58.48772 5941 ft 274 kts 106°
2026-05-03 21:26 -34.65139 -58.46587 5753 ft 267 kts 106°
2026-05-03 21:27 -34.65698 -58.44486 5529 ft 261 kts 106°
2026-05-03 21:27 -34.66251 -58.42401 5172 ft 253 kts 105°
2026-05-03 21:27 -34.66775 -58.40433 4930 ft 239 kts 105°
2026-05-03 21:27 -34.67273 -58.38555 4685 ft 227 kts 105°
2026-05-03 21:28 -34.67744 -58.36782 4472 ft 214 kts 104°
2026-05-03 21:28 -34.68180 -58.35133 4269 ft 202 kts 104°
2026-05-03 21:28 -34.68603 -58.33525 4013 ft 197 kts 103°
2026-05-03 21:28 -34.69013 -58.31965 3780 ft 192 kts 102°
2026-05-03 21:29 -34.69410 -58.30459 3603 ft 183 kts 102°
2026-05-03 21:29 -34.69790 -58.29028 3530 ft 169 kts 102°
2026-05-03 21:29 -34.70137 -58.27715 3479 ft 163 kts 100°
2026-05-03 21:29 -34.70261 -58.26382 3408 ft 154 kts 73°
2026-05-03 21:30 -34.69911 -58.25220 3291 ft 142 kts 48°
2026-05-03 21:30 -34.69245 -58.24392 3002 ft 135 kts 26°
2026-05-03 21:30 -34.68416 -58.23960 2728 ft 126 kts
2026-05-03 21:30 -34.67550 -58.23860 2319 ft 125 kts
2026-05-03 21:31 -34.66676 -58.23828 1904 ft 125 kts 358°
2026-05-03 21:31 -34.65862 -58.24123 1662 ft 125 kts 331°
2026-05-03 21:31 -34.65248 -58.24869 1659 ft 126 kts 313°
2026-05-03 21:31 -34.64751 -58.25740 1651 ft 124 kts 311°
2026-05-03 21:32 -34.64273 -58.26598 1655 ft 123 kts 311°
2026-05-03 21:32 -34.63790 -58.27469 1655 ft 123 kts 311°
2026-05-03 21:32 -34.63310 -58.28330 1654 ft 123 kts 311°
2026-05-03 21:32 -34.62829 -58.29192 1655 ft 123 kts 311°
2026-05-03 21:33 -34.62346 -58.30061 1658 ft 123 kts 311°
2026-05-03 21:33 -34.61868 -58.30918 1657 ft 123 kts 310°
2026-05-03 21:33 -34.61383 -58.31791 1621 ft 123 kts 310°
2026-05-03 21:33 -34.60906 -58.32649 1517 ft 123 kts 310°
2026-05-03 21:34 -34.60429 -58.33503 1385 ft 123 kts 310°
2026-05-03 21:34 -34.59946 -58.34372 1224 ft 123 kts 310°
2026-05-03 21:34 -34.59467 -58.35230 1072 ft 123 kts 310°
2026-05-03 21:34 -34.58990 -58.36083 914 ft 122 kts 309°
2026-05-03 21:35 -34.58512 -58.36946 720 ft 123 kts 308°
2026-05-03 21:35 -34.58046 -58.37808 523 ft 124 kts 307°
2026-05-03 21:35 -34.57560 -58.38668 323 ft 122 kts 308°
2026-05-03 21:35 -34.57071 -58.39523 237 ft 122 kts 306°
2026-05-03 21:36 -34.56595 -58.40382 105 ft 124 kts 306°
2026-05-03 21:36 -34.56118 -58.41224 27 ft 109 kts 304°
2026-05-03 21:36 -34.55788 -58.41811 27 ft 61 kts 305°
2026-05-03 21:36 -34.55590 -58.42169 27 ft 33 kts 305°
2026-05-03 21:37 -34.55488 -58.42369 27 ft 23 kts 304°
2026-05-03 21:37 -34.55396 -58.42490 27 ft 15 kts 351°
2026-05-03 21:37 -34.55357 -58.42416 27 ft 9 kts 100°
2026-05-03 21:37 -34.55358 -58.42406 27 ft 0 kts 102°
2026-05-03 21:38 -34.55359 -58.42403 27 ft 0 kts 102°
2026-05-03 21:38 -34.55360 -58.42399 27 ft 3 kts 104°
2026-05-03 21:39 -34.55375 -58.42360 27 ft 6 kts 121°
2026-05-03 21:39 -34.55402 -58.42311 27 ft 7 kts 123°
2026-05-03 21:39 -34.55437 -58.42251 27 ft 9 kts 129°
2026-05-03 21:39 -34.55483 -58.42183 27 ft 11 kts 128°
2026-05-03 21:40 -34.55533 -58.42104 27 ft 12 kts 127°
2026-05-03 21:40 -34.55588 -58.42010 27 ft 14 kts 124°
2026-05-03 21:40 -34.55632 -58.41930 27 ft 7 kts 123°
2026-05-03 21:40 -34.55642 -58.41880 27 ft 4 kts 78°
2026-05-03 21:41 -34.55625 -58.41850 27 ft 0 kts 51°
2026-05-03 21:41 -34.55624 -58.41848 27 ft 0 kts 51°
2026-05-03 21:41 -34.55618 -58.41838 27 ft 3 kts 56°
2026-05-03 21:41 -34.55618 -58.41808 27 ft 1 kts 124°
2026-05-03 21:42 -34.55626 -58.41779 27 ft 4 kts 80°
2026-05-03 21:42 -34.55599 -58.41743 27 ft 6 kts 30°
2026-05-03 21:42 -34.55551 -58.41713 27 ft 6 kts 30°
2026-05-03 21:42 -34.55539 -58.41704 27 ft 0 kts 32°